1531126800.16,4901,20.0,74172.8,7.05,4.07,4.01,0,*45
1531126801.36,4902,20.0,74168.3,7.05,4.07,4.05,0,*42
1531126802.59,4903,20.0,74170.8,7.07,4.05,3.85,0,*4C
1531126803.83,4904,20.0,74174.3,7.07,3.97,3.97,0,*44
1531126805.02,4905,20.0,74170.3,7.07,4.23,4.19,0,*4C
1531126806.22,4906,20.0,74170.0,7.07,4.19,4.23,0,*4F
1531126807.42,4907,20.0,74168.8,7.07,4.11,4.07,0,*40
1531126808.59,4908,20.0,74168.5,7.05,4.19,4.19,0,*4A
1531126809.79,4909,20.0,74170.5,7.05,4.27,4.31,0,*4C
1531126811.01,4910,20.0,74172.3,7.07,4.23,4.31,0,*42
1531126812.21,4911,20.0,74168.0,7.07,4.11,4.19,0,*48
1531126813.4,4912,20.0,74170.5,7.07,4.23,4.19,0,*4A
1531126814.65,4913,20.0,74170.0,7.07,4.05,4.05,0,*42
1531126815.85,4914,20.0,74172.3,7.07,4.11,4.19,0,*4D
1531126817.05,4915,20.0,74170.5,7.07,4.11,4.07,0,*43
1531126818.28,4916,20.0,74170.0,7.09,4.05,4.05,0,*49
1531126819.5,4917,20.0,74172.0,7.09,4.05,4.05,0,*48
1531126820.7,4918,20.0,74172.0,7.07,4.11,4.19,0,*41
1531126821.93,4919,20.0,74174.0,7.07,4.11,4.05,0,*4D
1531126823.12,4920,20.0,74170.8,7.07,4.19,4.23,0,*4B
1531126824.38,4921,20.0,74168.0,7.07,4.31,4.31,0,*43
1531126825.6,4922,20.0,74172.8,7.07,4.31,4.23,0,*43
1531126826.8,4923,20.0,74170.8,7.07,4.23,4.23,0,*41
1531126828.05,4924,20.0,74170.5,7.07,4.31,4.31,0,*46
1531126829.22,4925,20.0,74170.8,7.09,4.45,4.41,0,*4D
1531126830.4,4926,20.0,74170.5,7.09,4.41,4.33,0,*4F
1531126831.57,4927,20.0,74168.8,7.09,4.41,4.33,0,*4E
1531126832.77,4928,20.0,74168.8,7.07,4.33,4.33,0,*4A
1531126833.94,4929,20.0,74168.3,7.09,4.23,4.07,0,*43
1531126835.17,4930,20.0,74168.0,7.09,4.31,4.31,0,*4D
1531126836.4,4931,20.0,74168.3,7.09,4.31,4.31,0,*4C
1531126837.62,4932,20.0,74172.8,7.09,4.31,4.31,0,*4F
1531126838.79,4933,20.0,74172.5,7.09,4.23,4.07,0,*48
1531126840.02,4934,20.0,74168.8,7.09,4.31,4.31,0,*49
1531126841.22,4935,20.0,74166.8,7.09,4.31,4.23,0,*4B
1531126842.41,4936,20.0,74168.8,7.09,4.07,3.97,0,*45
1531126843.59,4937,20.0,74174.0,7.09,4.11,4.07,0,*4D
1531126844.76,4938,20.0,74170.3,7.09,4.23,4.07,0,*43
1531126845.95,4939,20.0,74170.0,7.09,3.97,3.85,0,*47
1531126847.12,4940,20.0,74174.0,7.09,4.11,4.19,0,*42
1531126848.34,4941,20.0,74170.0,7.09,4.31,4.31,0,*4B
1531126849.51,4942,20.0,74172.8,7.09,4.45,4.53,0,*4F
1531126850.71,4943,20.0,74174.3,7.11,4.57,4.45,0,*43
1531126851.91,4944,20.0,74168.8,7.13,4.59,4.53,0,*4F
1531126853.1,4945,20.0,74172.8,7.11,4.45,4.37,0,*43
1531126854.28,4946,20.0,74174.0,7.13,4.41,4.41,0,*47
1531126855.47,4947,20.0,74168.8,7.11,4.37,4.27,0,*45
1531126856.68,4948,20.0,74174.5,7.15,4.41,4.37,0,*4E
1531126857.9,4949,20.0,74174.5,7.15,4.41,4.31,0,*49
1531126859.1,4950,20.0,74168.5,7.15,4.49,4.37,0,*4F
1531126860.3,4951,20.0,74174.8,7.15,4.49,4.41,0,*4F
1531126861.51,4952,20.0,74170.8,7.15,4.53,4.41,0,*47
1531126862.74,4953,20.0,74170.5,7.15,4.59,4.53,0,*4F
1531126863.99,4954,20.0,74172.3,7.15,4.63,4.59,0,*4B
1531126865.18,4955,20.0,74174.5,7.15,4.53,4.49,0,*48
1531126866.39,4956,20.0,74172.3,7.15,4.53,4.41,0,*43
1531126867.56,4957,20.0,74168.5,7.17,4.53,4.45,0,*44
1531126868.74,4958,20.0,74170.5,7.17,4.53,4.45,0,*4B
1531126869.94,4959,20.0,74172.5,7.15,4.49,4.37,0,*46
1531126871.11,4960,20.0,74174.0,7.17,4.45,4.33,0,*46
1531126872.31,4961,20.0,74172.3,7.17,4.41,4.31,0,*41
1531126873.51,4962,20.0,74170.8,7.17,4.41,4.31,0,*42
1531126874.71,4963,20.0,74170.0,7.17,4.31,4.07,0,*41
1531126875.91,4964,20.0,74172.5,7.17,4.23,3.97,0,*4B
1531126877.08,4965,20.0,74168.3,7.17,4.11,3.81,0,*4C
1531126878.28,4966,20.0,74170.5,7.17,4.15,3.97,0,*4C
1531126879.46,4967,20.0,74168.8,7.17,4.07,3.81,0,*49
1531126880.66,4968,20.0,74174.8,7.17,4.05,3.81,0,*44
1531126881.86,4969,20.0,74174.0,7.17,3.93,3.75,0,*46
1531126883.05,4970,20.0,74170.5,7.17,3.97,3.85,0,*45
1531126884.28,4971,20.0,74170.0,7.15,4.19,4.01,0,*4C
1531126885.48,4972,20.0,74174.0,7.15,4.15,3.93,0,*4F
1531126886.67,4973,20.0,74172.8,7.17,4.19,3.97,0,*44
1531126887.87,4974,20.0,74170.3,7.15,4.19,4.11,0,*48
1531126889.04,4975,20.0,74174.8,7.17,4.41,4.37,0,*42
1531126890.22,4976,20.0,74172.0,7.17,4.53,4.41,0,*43
1531126891.4,4977,20.0,74170.8,7.17,4.53,4.41,0,*42
1531126892.57,4978,20.0,74174.0,7.17,4.45,4.33,0,*4F
1531126893.75,4979,20.0,74168.8,7.17,4.41,4.41,0,*4F
1531126894.94,4980,20.0,74174.5,7.19,4.33,4.19,0,*4F
1531126896.13,4981,20.0,74170.3,7.19,4.33,4.19,0,*4E
1531126897.32,4982,20.0,74174.0,7.19,4.33,4.15,0,*41
1531126898.52,4983,20.0,74174.8,7.19,4.33,4.07,0,*43
1531126899.74,4984,20.0,74168.0,7.19,4.23,3.97,0,*4B
1531126900.96,4985,20.0,74174.0,7.19,4.19,3.97,0,*43
1531126902.15,4986,20.0,74172.0,7.19,4.33,4.15,0,*45
1531126903.37,4987,20.0,74170.8,7.19,4.41,4.31,0,*47
1531126904.55,4988,20.0,74170.0,7.21,4.49,4.37,0,*4D
1531126905.72,4989,20.0,74174.8,7.21,4.49,4.45,0,*49
1531126906.89,4990,20.0,74172.0,7.21,4.49,4.33,0,*40
1531126908.07,4991,20.0,74170.8,7.21,4.57,4.37,0,*4A
1531126909.24,4992,20.0,74168.8,7.21,4.49,4.23,0,*43
1531126910.44,4993,20.0,74168.8,7.25,4.37,4.05,0,*4B
1531126911.66,4994,20.0,74174.8,7.25,4.31,4.01,0,*4E
1531126912.84,4995,20.0,74170.0,7.25,4.15,3.89,0,*4E
1531126914.04,4996,20.0,74170.3,7.25,4.37,4.05,0,*4E
1531126915.21,4997,20.0,74174.3,7.25,4.49,4.15,0,*47
1531126916.4,4998,20.0,74170.8,7.27,4.49,4.23,0,*4F
1531126917.59,4999,20.0,74174.3,7.27,4.49,4.27,0,*4A
1531126918.75,5000,20.0,74172.0,7.25,4.53,4.27,0,*4B
1531126919.95,5001,20.0,74168.0,7.27,4.53,4.15,0,*49
1531126921.12,5002,20.0,74174.0,7.29,4.53,4.19,0,*48
1531126922.29,5003,20.0,74170.3,7.29,4.45,4.19,0,*4E
1531126923.52,5004,20.0,74172.3,7.29,4.31,4.05,0,*47
1531126924.71,5005,20.0,74174.5,7.31,4.15,3.85,0,*46
1531126925.96,5006,20.0,74172.8,7.31,3.97,3.75,0,*47
1531126927.16,5007,20.0,74172.0,7.29,4.27,3.97,0,*4F
1531126928.36,5008,20.0,74174.0,7.31,4.33,4.07,0,*42
1531126929.53,5009,20.0,74172.3,7.29,4.33,4.07,0,*4A
1531126930.71,5010,20.0,74172.5,7.29,4.41,4.07,0,*47
1531126931.88,5011,20.0,74172.8,7.29,4.33,4.15,0,*40
1531126933.07,5012,20.0,74172.5,7.31,4.41,4.19,0,*43
1531126934.26,5013,20.0,74168.8,7.31,4.53,4.27,0,*4C
1531126935.46,5014,20.0,74174.5,7.33,4.57,4.31,0,*4A
1531126936.69,5015,20.0,74172.0,7.31,4.53,4.31,0,*4D
1531126937.86,5016,20.0,74172.5,7.33,4.49,4.33,0,*45
1531126939.03,5017,20.0,74172.3,7.33,4.49,4.33,0,*44
1531126940.21,5018,20.0,74174.0,7.33,4.57,4.45,0,*45
1531126941.38,5019,20.0,74172.0,7.33,4.57,4.49,0,*48
1531126942.57,5020,20.0,74172.0,7.35,4.41,4.15,0,*4A
1531126943.77,5021,20.0,74172.0,7.35,4.33,4.23,0,*4B
1531126944.97,5022,20.0,74172.5,7.35,4.37,4.27,0,*48
1531126946.16,5023,20.0,74170.5,7.35,4.41,4.27,0,*48
1531126947.36,5024,20.0,74174.8,7.35,4.49,4.37,0,*46
1531126948.52,5025,20.0,74172.8,7.37,4.41,4.27,0,*4C
1531126949.75,5026,20.0,74174.0,7.39,4.31,4.15,0,*47
1531126950.92,5027,20.0,74174.0,7.37,4.33,4.15,0,*4A
1531126952.09,5028,20.0,74170.8,7.37,4.23,4.11,0,*40
1531126953.27,5029,20.0,74172.0,7.37,4.37,4.27,0,*41
1531126954.47,5030,20.0,74174.5,7.39,4.57,4.53,0,*42
1531126955.67,5031,20.0,74174.0,7.39,4.53,4.41,0,*44
1531126956.87,5032,20.0,74172.5,7.39,4.57,4.53,0,*40
1531126958.09,5033,20.0,74170.0,7.39,4.63,4.53,0,*46
1531126959.32,5034,20.0,74170.5,7.39,4.63,4.53,0,*41
1531126960.53,5035,20.0,74170.8,7.41,4.67,4.59,0,*41
1531126961.73,5036,20.0,74172.3,7.41,4.59,4.57,0,*41
1531126962.93,5037,20.0,74170.5,7.43,4.41,4.33,0,*49
1531126964.09,5038,20.0,74170.5,7.41,4.33,4.19,0,*49
1531126965.26,5039,20.0,74174.3,7.41,4.45,4.33,0,*41
1531126966.46,5040,20.0,74170.5,7.43,4.49,4.33,0,*41
1531126967.65,5041,20.0,74168.5,7.43,4.57,4.41,0,*4A
1531126968.87,5042,20.0,74172.0,7.43,4.67,4.57,0,*4D
1531126970.1,5043,20.0,74172.8,7.43,4.59,4.45,0,*42
1531126971.32,5044,20.0,74172.3,7.43,4.67,4.57,0,*4B
1531126972.52,5045,20.0,74170.5,7.47,4.53,4.37,0,*4F
1531126973.71,5046,20.0,74172.5,7.47,4.45,4.23,0,*4E
1531126974.9,5047,20.0,74174.5,7.47,4.45,4.15,0,*4A
1531126976.12,5048,20.0,74174.0,7.47,4.27,4.05,0,*40
1531126977.32,5049,20.0,74172.0,7.47,4.37,4.23,0,*44
1531126978.55,5050,20.0,74174.8,7.49,4.59,4.33,0,*4B
1531126979.78,5051,20.0,74174.8,7.49,4.59,4.27,0,*4F
1531126981.0,5052,20.0,74174.0,7.49,4.63,4.45,0,*41
1531126982.22,5053,20.0,74172.3,7.49,4.63,4.45,0,*40
1531126983.43,5054,20.0,74170.5,7.51,4.53,4.31,0,*4E
1531126984.6,5055,20.0,74174.0,7.51,4.53,4.27,0,*48
1531126985.76,5056,20.0,74170.5,7.51,4.53,4.27,0,*4B
1531126986.97,5057,20.0,74172.5,7.51,4.63,4.37,0,*48
1531126988.13,5058,20.0,74174.3,7.51,4.49,4.19,0,*43
1531126989.33,5059,20.0,74174.0,7.53,4.41,4.07,0,*47
1531126990.53,5060,20.0,74174.3,7.53,4.45,4.11,0,*4E
1531126991.71,5061,20.0,74172.3,7.51,4.37,4.07,0,*4F
1531126992.91,5062,20.0,74174.8,7.53,4.11,3.85,0,*47
1531126994.13,5063,20.0,74178.0,7.51,3.97,3.71,0,*46
1531126995.3,5064,20.0,74168.5,7.51,3.81,3.55,0,*40
1531126996.47,5065,20.0,74174.8,7.51,3.85,3.55,0,*45
1531126997.64,5066,20.0,74170.8,7.51,3.85,3.59,0,*4A
1531126998.87,5067,20.0,74170.3,7.51,4.05,3.67,0,*49
1531127000.07,5068,20.0,74172.3,7.51,3.81,3.45,0,*4D
1531127001.28,5069,20.0,74172.8,7.49,3.55,3.23,0,*4C
1531127002.51,5070,20.0,74170.0,7.51,3.71,3.37,0,*4E
1531127003.71,5071,20.0,74174.0,7.49,3.63,3.29,0,*4A
1531127004.95,5072,20.0,74174.8,7.47,3.45,3.11,0,*48
1531127006.19,5073,20.0,74170.5,7.47,3.53,3.11,0,*4E
1531127007.44,5074,20.0,74172.3,7.49,3.45,3.03,0,*43
1531127008.63,5075,20.0,74174.3,7.47,3.55,3.29,0,*45
1531127009.85,5076,20.0,74174.0,7.43,3.37,2.91,0,*44
1531127011.1,5077,20.0,74172.5,7.43,3.07,2.59,0,*42
1531127012.29,5078,20.0,74168.0,7.41,3.19,2.65,0,*4F
1531127013.51,5079,20.0,74170.5,7.41,3.53,3.07,0,*45
1531127014.7,5080,20.0,74168.0,7.41,3.71,3.25,0,*43
1531127015.93,5081,20.0,74172.5,7.41,3.71,3.15,0,*41
1531127017.13,5082,20.0,74172.3,7.41,3.75,3.29,0,*49
1531127018.34,5083,20.0,74172.8,7.41,3.71,3.19,0,*4F
1531127019.53,5084,20.0,74174.5,7.41,3.59,3.07,0,*4D
1531127020.73,5085,20.0,74174.8,7.41,3.71,3.25,0,*46
1531127021.92,5086,20.0,74168.8,7.41,3.63,3.19,0,*49
1531127023.13,5087,20.0,74174.8,7.39,3.49,2.99,0,*46
1531127024.36,5088,20.0,74168.8,7.39,3.25,2.73,0,*47
1531127025.56,5089,20.0,74172.8,7.37,2.99,2.51,0,*4E
1531127026.76,5090,20.0,74170.0,7.37,3.29,2.73,0,*4C
1531127027.96,5091,20.0,74174.0,7.37,3.53,2.99,0,*44
1531127029.2,5092,20.0,74170.8,7.35,3.33,2.85,0,*4E
1531127030.43,5093,20.0,74170.8,7.35,3.23,2.61,0,*44
1531127031.65,5094,20.0,74174.5,7.35,3.33,2.91,0,*4D
1531127032.89,5095,20.0,74174.5,7.35,3.79,3.23,0,*4A
1531127034.07,5096,20.0,74172.3,7.33,3.89,3.25,0,*46
1531127035.3,5097,20.0,74174.8,7.35,3.93,3.41,0,*48
1531127036.54,5098,20.0,74172.8,7.35,3.93,3.41,0,*47
1531127037.73,5099,20.0,74172.5,7.35,3.81,3.29,0,*4B
1531127038.93,5100,20.0,74168.3,7.35,3.81,3.29,0,*4A
1531127040.18,5101,20.0,74174.0,7.35,3.71,3.19,0,*47
1531127041.4,5102,20.0,74174.3,7.35,3.63,3.11,0,*4F
1531127042.62,5103,20.0,74170.5,7.35,3.45,2.91,0,*43
1531127043.82,5104,20.0,74172.3,7.33,3.29,2.77,0,*40
1531127045.05,5105,20.0,74172.5,7.35,3.41,2.95,0,*45
1531127046.24,5106,20.0,74170.5,7.33,3.59,3.07,0,*43
1531127047.49,5107,20.0,74172.0,7.35,3.71,3.19,0,*41
1531127048.72,5108,20.0,74168.8,7.33,3.67,3.15,0,*43
1531127049.95,5109,20.0,74168.0,7.35,3.79,3.29,0,*44
1531127051.12,5110,20.0,74168.3,7.33,3.85,3.25,0,*45
1531127052.32,5111,20.0,74172.5,7.37,3.33,2.91,0,*43
1531127053.51,5112,20.0,74174.0,7.33,3.49,2.91,0,*49
1531127054.74,5113,20.0,74174.5,7.33,3.41,2.89,0,*49
1531127055.94,5114,20.0,74174.8,7.33,3.29,2.89,0,*40
1531127057.16,5115,20.0,74174.0,7.31,3.45,2.99,0,*48
1531127058.39,5116,20.0,74172.5,7.31,3.25,2.89,0,*4C
1531127059.58,5117,20.0,74170.8,7.31,3.25,2.99,0,*4C
1531127060.83,5118,20.0,74172.5,7.31,3.37,3.03,0,*42
1531127062.0,5119,20.0,74174.3,7.29,3.25,2.99,0,*4B
1531127063.23,5120,20.0,74172.5,7.29,3.37,3.15,0,*47
1531127064.48,5121,20.0,74172.5,7.27,3.41,3.11,0,*4D
1531127065.67,5122,20.0,74170.8,7.27,3.81,3.55,0,*42
1531127066.87,5123,20.0,74172.5,7.27,3.93,3.55,0,*40
1531127068.04,5124,20.0,74170.8,7.25,3.93,3.59,0,*49
1531127069.27,5125,20.0,74172.3,7.27,3.81,3.41,0,*40
1531127070.5,5126,20.0,74170.8,7.27,3.81,3.41,0,*43
1531127071.73,5127,20.0,74170.8,7.27,3.81,3.45,0,*46
1531127072.93,5128,20.0,74174.0,7.25,3.81,3.45,0,*4B
1531127074.12,5129,20.0,74172.3,7.25,4.01,3.55,0,*44
1531127075.32,5130,20.0,74172.5,7.25,3.89,3.41,0,*4E
1531127076.55,5131,20.0,74172.0,7.27,3.89,3.45,0,*49
1531127077.75,5132,20.0,74174.0,7.25,3.79,3.29,0,*4D
1531127078.95,5133,20.0,74170.8,7.25,3.71,3.29,0,*44
1531127080.18,5134,20.0,74170.3,7.25,3.71,3.33,0,*48
1531127081.41,5135,20.0,74174.8,7.25,3.79,3.45,0,*40
1531127082.6,5136,20.0,74170.3,7.25,3.89,3.53,0,*4B
1531127083.77,5137,20.0,74170.5,7.25,3.89,3.55,0,*4C
1531127084.97,5138,20.0,74170.5,7.25,3.89,3.53,0,*45
1531127086.17,5139,20.0,74170.8,7.21,3.89,3.53,0,*40
1531127087.34,5140,20.0,74172.3,7.21,3.89,3.55,0,*48
1531127088.57,5141,20.0,74168.3,7.19,3.81,3.49,0,*47
1531127089.76,5142,20.0,74170.5,7.21,4.01,3.63,0,*48
1531127090.96,5143,20.0,74170.5,7.19,4.07,3.63,0,*44
1531127092.16,5144,20.0,74172.5,7.21,4.19,3.75,0,*40
1531127093.36,5145,20.0,74172.0,7.21,4.19,3.79,0,*4D
1531127094.55,5146,20.0,74170.8,7.21,4.33,3.97,0,*46
1531127095.75,5147,20.0,74174.0,7.21,4.45,4.01,0,*4E
1531127096.95,5148,20.0,74172.3,7.21,4.27,3.79,0,*4D
1531127098.13,5149,20.0,74174.0,7.21,3.89,3.55,0,*41
1531127099.33,5150,20.0,74172.5,7.21,3.79,3.29,0,*4D
1531127100.54,5151,20.0,74174.3,7.21,3.89,3.41,0,*4D
1531127101.77,5152,20.0,74168.5,7.21,3.75,3.19,0,*40
1531127102.97,5153,20.0,74174.0,7.21,3.75,3.29,0,*42
1531127104.19,5154,20.0,74174.3,7.19,3.85,3.45,0,*4B
1531127105.37,5155,20.0,74170.8,7.21,4.07,3.63,0,*48
1531127106.59,5156,20.0,74172.0,7.19,4.07,3.71,0,*43
1531127107.8,5157,20.0,74168.3,7.21,3.89,3.41,0,*4B
1531127109.01,5158,20.0,74174.3,7.21,3.79,3.25,0,*49
1531127110.21,5159,20.0,74172.3,7.21,3.75,3.29,0,*48
1531127111.43,5160,20.0,74172.5,7.19,3.81,3.23,0,*48
1531127112.63,5161,20.0,74174.5,7.21,3.79,3.25,0,*43
1531127113.86,5162,20.0,74174.8,7.19,3.75,3.25,0,*47
1531127115.08,5163,20.0,74172.5,7.19,3.71,3.25,0,*42
1531127116.34,5164,20.0,74172.5,7.19,3.75,3.33,0,*46
1531127117.56,5165,20.0,74174.8,7.19,3.85,3.49,0,*45
1531127118.8,5166,20.0,74174.3,7.19,3.97,3.71,0,*4E
1531127120.05,5167,20.0,74176.0,7.19,4.05,3.71,0,*43
1531127121.3,5168,20.0,74170.5,7.19,4.05,3.71,0,*4C
1531127122.52,5169,20.0,74170.8,7.19,4.15,3.97,0,*44
1531127123.74,5170,20.0,74170.0,7.19,4.31,4.19,0,*4B
1531127124.94,5171,20.0,74174.5,7.19,4.53,4.45,0,*47
1531127126.13,5172,20.0,74172.5,7.19,4.33,4.19,0,*4B
1531127127.3,5173,20.0,74174.0,7.21,4.49,4.45,0,*45
1531127128.52,5174,20.0,74172.3,7.21,4.67,4.59,0,*43
1531127129.74,5175,20.0,74174.5,7.21,4.67,4.59,0,*42
1531127130.94,5176,20.0,74174.3,7.25,4.63,4.53,0,*4B
1531127132.12,5177,20.0,74174.5,7.25,4.53,4.41,0,*4A
1531127133.3,5178,20.0,74174.8,7.21,4.45,4.37,0,*47
1531127134.47,5179,20.0,74174.0,7.25,4.53,4.49,0,*4C
1531127135.64,5180,20.0,74170.5,7.25,4.41,4.23,0,*45
1531127136.8,5181,20.0,74172.3,7.25,4.41,4.23,0,*44
1531127138.03,5182,20.0,74176.5,7.27,4.31,4.15,0,*47
1531127139.21,5183,20.0,74174.5,7.25,4.11,3.93,0,*4F
1531127140.37,5184,20.0,74172.0,7.25,4.23,4.11,0,*44
1531127141.54,5185,20.0,74170.3,7.25,4.37,4.27,0,*45
1531127142.72,5186,20.0,74174.3,7.25,4.49,4.41,0,*4F
1531127143.94,5187,20.0,74172.0,7.25,4.59,4.59,0,*46
1531127145.11,5188,20.0,74170.3,7.25,4.53,4.53,0,*49
1531127146.29,5189,20.0,74172.0,7.25,4.53,4.53,0,*48
1531127147.51,5190,20.0,74172.5,7.27,4.59,4.53,0,*48
1531127148.76,5191,20.0,74172.5,7.27,4.59,4.59,0,*43
1531127149.99,5192,20.0,74170.8,7.25,4.59,4.63,0,*4B
1531127151.24,5193,20.0,74174.3,7.27,4.63,4.59,0,*48
1531127152.46,5194,20.0,74174.8,7.27,4.75,4.81,0,*4D
1531127153.71,5195,20.0,74174.5,7.27,4.75,4.75,0,*47
1531127154.96,5196,20.0,74170.3,7.27,4.63,4.71,0,*47
1531127156.22,5197,20.0,74172.8,7.27,4.63,4.63,0,*45
1531127157.44,5198,20.0,74174.3,7.27,4.53,4.59,0,*40
1531127158.66,5199,20.0,74172.5,7.27,4.53,4.59,0,*41
1531127159.89,5200,20.0,74172.5,7.29,4.75,4.79,0,*4A
1531127161.14,5201,20.0,74172.5,7.31,4.63,4.63,0,*4E
1531127162.37,5202,20.0,74174.3,7.29,4.67,4.75,0,*47
1531127163.59,5203,20.0,74170.3,7.29,4.79,4.79,0,*45
1531127164.84,5204,20.0,74174.8,7.31,4.75,4.79,0,*47
1531127166.09,5205,20.0,74174.3,7.31,4.67,4.67,0,*4A
1531127167.28,5206,20.0,74172.8,7.31,4.57,4.57,0,*49
1531127168.53,5207,20.0,74170.5,7.31,4.63,4.63,0,*48
1531127169.78,5208,20.0,74172.8,7.31,4.75,4.67,0,*44
1531127170.98,5209,20.0,74172.0,7.31,4.57,4.57,0,*46
1531127172.2,5210,20.0,74168.8,7.33,4.59,4.59,0,*4C
1531127173.4,5211,20.0,74172.3,7.31,4.57,4.57,0,*4F
1531127174.6,5212,20.0,74172.5,7.33,4.57,4.59,0,*40
1531127175.84,5213,20.0,74170.5,7.33,4.71,4.71,0,*4F
1531127177.06,5214,20.0,74170.3,7.33,4.67,4.59,0,*45
1531127178.26,5215,20.0,74168.0,7.35,4.27,4.15,0,*4E
1531127179.45,5216,20.0,74172.0,7.33,4.19,4.01,0,*43
1531127180.65,5217,20.0,74170.8,7.31,4.07,3.93,0,*43
1531127181.87,5218,20.0,74168.8,7.31,4.19,4.05,0,*4B
1531127183.07,5219,20.0,74168.3,7.31,4.15,3.93,0,*4E
1531127184.28,5220,20.0,74168.8,7.29,4.31,4.15,0,*42
1531127185.5,5221,20.0,74168.0,7.31,4.31,4.15,0,*4A
1531127186.7,5222,20.0,74170.5,7.31,3.93,3.81,0,*4C
1531127187.9,5223,20.0,74170.5,7.29,3.97,3.81,0,*40
1531127189.07,5224,20.0,74172.0,7.29,4.19,3.93,0,*45
1531127190.25,5225,20.0,74168.3,7.29,4.33,4.07,0,*46
1531127191.42,5226,20.0,74168.0,7.29,4.33,4.19,0,*4A
1531127192.59,5227,20.0,74170.8,7.29,4.33,4.19,0,*4B
1531127193.76,5228,20.0,74168.5,7.29,4.41,4.19,0,*41
1531127194.94,5229,20.0,74170.3,7.29,4.07,3.93,0,*47
1531127196.14,5230,20.0,74172.8,7.27,3.93,3.81,0,*48
1531127197.34,5231,20.0,74168.5,7.27,4.41,4.11,0,*4F
1531127198.54,5232,20.0,74170.0,7.27,4.37,4.27,0,*48
1531127199.73,5233,20.0,74172.0,7.27,4.49,4.37,0,*41
1531127200.9,5234,20.0,74174.8,7.25,4.41,4.15,0,*4C
1531127202.09,5235,20.0,74172.8,7.27,4.49,4.27,0,*46
1531127203.29,5236,20.0,74170.8,7.27,4.37,4.15,0,*4D
1531127204.48,5237,20.0,74174.0,7.27,4.41,4.27,0,*4C
1531127205.68,5238,20.0,74168.5,7.27,4.53,4.49,0,*48
1531127206.9,5239,20.0,74174.5,7.27,4.59,4.41,0,*4B
1531127208.12,5240,20.0,74170.8,7.27,4.63,4.49,0,*44
1531127209.32,5241,20.0,74174.5,7.29,4.67,4.53,0,*44
1531127210.52,5242,20.0,74170.3,7.25,4.71,4.49,0,*47
1531127211.73,5243,20.0,74172.3,7.29,4.63,4.41,0,*41
1531127212.95,5244,20.0,74172.3,7.31,4.75,4.53,0,*4B
1531127214.15,5245,20.0,74170.8,7.29,4.67,4.53,0,*40
1531127215.35,5246,20.0,74174.3,7.29,4.57,4.31,0,*44
1531127216.53,5247,20.0,74172.5,7.29,4.57,4.41,0,*42
1531127217.72,5248,20.0,74172.8,7.31,4.41,4.19,0,*4E
1531127218.89,5249,20.0,74172.8,7.29,4.53,4.19,0,*45
1531127220.06,5250,20.0,74174.8,7.29,4.57,4.41,0,*44
1531127221.28,5251,20.0,74172.0,7.31,4.67,4.53,0,*4C
1531127222.51,5252,20.0,74172.8,7.31,4.67,4.53,0,*4F
1531127223.73,5253,20.0,74170.5,7.31,4.67,4.53,0,*4E
1531127224.97,5254,20.0,74174.5,7.31,4.75,4.63,0,*49
1531127226.17,5255,20.0,74172.5,7.33,4.59,4.49,0,*4C
1531127227.42,5256,20.0,74172.5,7.31,4.63,4.31,0,*4B
1531127228.64,5257,20.0,74170.8,7.31,4.67,4.45,0,*4D
1531127229.89,5258,20.0,74172.3,7.31,4.63,4.31,0,*45
1531127231.1,5259,20.0,74172.3,7.33,4.71,4.57,0,*45
1531127232.32,5260,20.0,74174.5,7.35,4.81,4.59,0,*48
1531127233.5,5261,20.0,74172.3,7.33,4.89,4.57,0,*49
1531127234.7,5262,20.0,74168.8,7.33,4.59,4.23,0,*44
1531127235.9,5263,20.0,74170.0,7.33,4.57,4.31,0,*48
1531127237.11,5264,20.0,74174.5,7.35,4.63,4.27,0,*49
1531127238.34,5265,20.0,74174.8,7.35,4.63,4.33,0,*4D
1531127239.54,5266,20.0,74172.8,7.33,4.59,4.23,0,*40
1531127240.76,5267,20.0,74172.0,7.35,4.63,4.27,0,*4A
1531127241.93,5268,20.0,74172.5,7.33,4.57,4.19,0,*49
1531127243.13,5269,20.0,74172.3,7.33,4.59,4.33,0,*4E
1531127244.32,5270,20.0,74172.8,7.35,4.81,4.49,0,*48
1531127245.54,5271,20.0,74174.8,7.35,4.85,4.59,0,*4C
1531127246.72,5272,20.0,74174.8,7.33,4.81,4.53,0,*47
1531127247.97,5273,20.0,74176.0,7.35,5.05,4.67,0,*4A
1531127249.22,5274,20.0,74172.3,7.35,4.97,4.63,0,*43
1531127250.42,5275,20.0,74176.0,7.33,4.79,4.57,0,*43
1531127251.64,5276,20.0,74172.5,7.35,4.81,4.59,0,*4F
1531127252.9,5277,20.0,74172.5,7.35,4.93,4.71,0,*47
1531127254.15,5278,20.0,74172.0,7.35,5.05,4.75,0,*42
1531127255.38,5279,20.0,74174.5,7.35,4.85,4.63,0,*4D
1531127256.58,5280,20.0,74174.0,7.37,4.59,4.33,0,*4D
1531127257.81,5281,20.0,74172.5,7.37,4.75,4.59,0,*4E
1531127259.04,5282,20.0,74172.3,7.37,4.93,4.63,0,*4C
1531127260.27,5283,20.0,74172.0,7.37,4.97,4.75,0,*4E
1531127261.5,5284,20.0,74174.0,7.37,4.93,4.71,0,*49
1531127262.76,5285,20.0,74174.3,7.39,4.97,4.67,0,*45
1531127263.96,5286,20.0,74172.5,7.37,4.81,4.63,0,*4B
1531127265.18,5287,20.0,74172.3,7.39,4.85,4.63,0,*40
1531127266.42,5288,20.0,74170.3,7.37,4.93,4.71,0,*45
1531127267.64,5289,20.0,74172.8,7.41,5.01,4.79,0,*47
1531127268.84,5290,20.0,74176.0,7.39,5.07,4.85,0,*45
1531127270.07,5291,20.0,74174.0,7.39,5.19,4.97,0,*48
1531127271.23,5292,20.0,74174.0,7.41,5.11,4.89,0,*43
1531127272.46,5293,20.0,74174.5,7.39,4.97,4.85,0,*4E
1531127273.65,5294,20.0,74174.8,7.41,5.05,4.89,0,*40
1531127274.82,5295,20.0,74172.0,7.41,5.11,4.89,0,*44
1531127276.04,5296,20.0,74172.5,7.41,4.93,4.79,0,*43
1531127277.23,5297,20.0,74174.5,7.41,5.01,4.89,0,*47
1531127278.44,5298,20.0,74172.0,7.41,5.11,5.01,0,*48
1531127279.69,5299,20.0,74174.8,7.43,5.05,4.93,0,*44
1531127280.91,5300,20.0,74174.3,7.41,4.79,4.71,0,*41
1531127282.16,5301,20.0,74172.3,7.43,5.01,4.79,0,*44
1531127283.35,5302,20.0,74172.3,7.41,5.05,4.89,0,*4E
1531127284.58,5303,20.0,74174.0,7.41,5.05,5.01,0,*4E
1531127285.8,5304,20.0,74174.0,7.43,5.01,4.89,0,*4E
1531127287.02,5305,20.0,74170.8,7.43,4.81,4.71,0,*41
1531127288.22,5306,20.0,74174.0,7.41,4.89,4.79,0,*40
1531127289.44,5307,20.0,74172.3,7.43,4.81,4.71,0,*43
1531127290.67,5308,20.0,74170.3,7.43,4.81,4.71,0,*4C
1531127291.93,5309,20.0,74172.0,7.43,4.71,4.71,0,*42
1531127293.15,5310,20.0,74174.0,7.47,4.81,4.75,0,*45
1531127294.36,5311,20.0,74168.8,7.47,4.75,4.49,0,*40
1531127295.56,5312,20.0,74172.5,7.43,4.49,4.41,0,*40
1531127296.78,5313,20.0,74172.5,7.41,4.67,4.59,0,*46
1531127298.02,5314,20.0,74172.0,7.43,4.79,4.59,0,*4C
1531127299.21,5315,20.0,74172.5,7.43,4.49,4.33,0,*42
1531127300.37,5316,20.0,74174.3,7.41,4.45,4.23,0,*4E
1531127301.54,5317,20.0,74174.0,7.41,4.57,4.41,0,*48
1531127302.72,5318,20.0,74174.0,7.41,4.57,4.41,0,*47
1531127303.91,5319,20.0,74172.3,7.41,4.89,4.67,0,*41
1531127305.11,5320,20.0,74168.8,7.41,4.71,4.57,0,*4F
1531127306.31,5321,20.0,74170.0,7.41,4.81,4.67,0,*42
1531127307.53,5322,20.0,74170.3,7.41,4.59,4.31,0,*47
1531127308.73,5323,20.0,74172.0,7.41,4.67,4.41,0,*4C
1531127309.95,5324,20.0,74170.8,7.39,4.75,4.53,0,*44
1531127311.18,5325,20.0,74172.3,7.39,4.67,4.41,0,*45
1531127312.39,5326,20.0,74172.5,7.41,4.79,4.59,0,*4F
1531127313.59,5327,20.0,74168.5,7.41,4.89,4.67,0,*4C
1531127314.79,5328,20.0,74170.5,7.41,4.79,4.57,0,*4F
1531127316.01,5329,20.0,74170.8,7.41,4.67,4.31,0,*41
1531127317.2,5330,20.0,74172.0,7.41,4.89,4.59,0,*47
1531127318.4,5331,20.0,74174.0,7.41,4.71,4.45,0,*4C
1531127319.6,5332,20.0,74174.5,7.43,4.89,4.57,0,*49
1531127320.85,5333,20.0,74174.0,7.43,4.71,4.31,0,*4F
1531127322.07,5334,20.0,74168.5,7.43,4.59,4.11,0,*40
1531127323.29,5335,20.0,74174.5,7.41,4.71,4.31,0,*4B
1531127324.48,5336,20.0,74174.0,7.41,4.67,4.19,0,*45
1531127325.7,5337,20.0,74170.5,7.43,4.67,4.23,0,*4F
1531127326.89,5338,20.0,74174.3,7.41,4.59,4.11,0,*4E
1531127328.08,5339,20.0,74174.3,7.41,4.59,4.11,0,*4F
1531127329.3,5340,20.0,74174.0,7.43,4.81,4.31,0,*44
1531127330.5,5341,20.0,74174.8,7.43,4.89,4.57,0,*4D
1531127331.75,5342,20.0,74168.8,7.43,5.01,4.67,0,*4C
1531127332.94,5343,20.0,74174.0,7.41,5.11,4.67,0,*4E
1531127334.19,5344,20.0,74172.3,7.43,5.05,4.67,0,*4E
1531127335.42,5345,20.0,74170.0,7.43,5.01,4.57,0,*48
1531127336.66,5346,20.0,74172.5,7.43,5.01,4.59,0,*45
1531127337.89,5347,20.0,74172.5,7.47,4.93,4.45,0,*47
1531127339.08,5348,20.0,74172.5,7.47,4.81,4.33,0,*4A
1531127340.31,5349,20.0,74174.0,7.47,4.75,4.33,0,*40
1531127341.5,5350,20.0,74170.8,7.49,4.81,4.27,0,*48
1531127342.72,5351,20.0,74168.8,7.47,4.75,4.23,0,*48
1531127343.94,5352,20.0,74174.3,7.49,4.71,4.11,0,*40
1531127345.17,5353,20.0,74168.3,7.47,4.71,4.15,0,*4B